Weather History for Himsel Army Airfld, Nineveh,, IN

Change the Weather History Date:

Sunday, March 9, 2014

  Actual Average (KGEZ) Record (KGEZ)
Temperature  
Mean Temperature 34 °F 39 °F  
Max Temperature 46 °F 49 °F 64 °F (2007)
Min Temperature 21 °F 29 °F 6 °F (2008)
Degree Days  
Heating Degree Days 32 26  
Month to date heating degree days 248  
Since 1 July heating degree days 4411  
Cooling Degree Days 0 0  
Month to date cooling degree days 0  
Year to date cooling degree days 0  
Moisture  
Dew Point 22 °F    
Average Humidity 64    
Maximum Humidity 93    
Minimum Humidity 34    
Precipitation  
Precipitation 0.00 in 0.08 in 1.52 in (2006)
Month to date precipitation 0.75  
Year to date precipitation 5.50  
Sea Level Pressure  
Sea Level Pressure 30.19 in    
Wind  
Wind Speed 6 mph (West)    
Max Wind Speed 10 mph    
Max Gust Speed 17 mph    
Visibility 10 miles    
Events      
T = Trace of Precipitation, MM = Missing Value Source: NWS Daily Summary

Daily Weather History Graph

Daily Weather History Graph

Search for Another Location

Airport:

Trip Planner

Search our weather history database for the weather conditions in past years. The results will help you decide how hot, cold, wet, or windy it might be!

Date:

Astronomy

Mar. 09, 2014 Rise Set
Actual Time 8:04 AM EDT 7:44 PM EDT
Civil Twilight 7:38 AM EDT 8:11 PM EDT
Nautical Twilight 7:07 AM EDT 8:42 PM EDT
Astronomical Twilight 6:35 AM EDT 9:14 PM EDT
Moon 1:38 PM EDT (3/9) 3:28 AM EDT (3/9)
Length of Visible Light 12h 33m
Length of Day
11h 40m
First Quarter, 61% of the Moon is Illuminated
Mar 9
First Quarter
Mar 16
Full
Mar 23
Last Quarter
Mar 30
New
Apr 7
First Quarter

Hourly Weather History & Observations

Time (EDT) Temp. Windchill Dew Point Humidity Pressure Visibility Wind Dir Wind Speed Gust Speed Precip Events Conditions
12:00 AM 30.2 °F 21.3 °F 23.0 °F 75% 30.24 in 10.0 mi NW 10.4 mph - N/A   Unknown
12:15 AM 28.4 °F 21.2 °F 23.0 °F 80% 30.24 in 10.0 mi NW 6.9 mph - N/A   Unknown
12:40 AM 28.4 °F 21.2 °F 21.2 °F 74% 30.24 in 10.0 mi NW 6.9 mph - N/A   Unknown
12:55 AM 28.4 °F 19.7 °F 21.2 °F 74% 30.24 in 10.0 mi NNW 9.2 mph - N/A   Unknown
1:15 AM 28.4 °F 22.2 °F 21.2 °F 74% 30.25 in 10.0 mi NW 5.8 mph - N/A   Unknown
1:35 AM 28.4 °F 21.2 °F 21.2 °F 74% 30.25 in 10.0 mi NW 6.9 mph - N/A   Unknown
1:55 AM 26.6 °F 21.2 °F 21.2 °F 80% 30.25 in 10.0 mi NW 4.6 mph - N/A   Unknown
3:15 AM 26.6 °F 22.6 °F 21.2 °F 80% 30.25 in 10.0 mi NW 3.5 mph - N/A   Unknown
3:35 AM 26.6 °F 22.6 °F 21.2 °F 80% 30.25 in 10.0 mi NW 3.5 mph - N/A   Unknown
3:55 AM 26.6 °F 21.2 °F 21.2 °F 80% 30.25 in 10.0 mi NW 4.6 mph - N/A   Unknown
4:15 AM 24.8 °F 19.1 °F 19.4 °F 80% 30.24 in 10.0 mi WNW 4.6 mph - N/A   Unknown
4:35 AM 24.8 °F 19.1 °F 19.4 °F 80% 30.25 in 10.0 mi WNW 4.6 mph - N/A   Unknown
4:55 AM 24.8 °F 19.1 °F 19.4 °F 80% 30.25 in 10.0 mi NW 4.6 mph - N/A   Unknown
5:15 AM 24.8 °F 20.5 °F 19.4 °F 80% 30.25 in 10.0 mi NW 3.5 mph - N/A   Unknown
5:35 AM 23.0 °F 15.8 °F 19.4 °F 86% 30.25 in 10.0 mi NW 5.8 mph - N/A   Unknown
5:55 AM 23.0 °F 15.8 °F 19.4 °F 86% 30.26 in 10.0 mi NW 5.8 mph - N/A   Unknown
6:15 AM 23.0 °F 17.0 °F 19.4 °F 86% 30.26 in 10.0 mi NW 4.6 mph - N/A   Unknown
6:35 AM 23.0 °F 17.0 °F 19.4 °F 86% 30.27 in 10.0 mi NW 4.6 mph - N/A   Unknown
6:55 AM 23.0 °F 17.0 °F 19.4 °F 86% 30.28 in 10.0 mi WNW 4.6 mph - N/A   Unknown
7:20 AM 23.0 °F 18.4 °F 19.4 °F 86% 30.28 in 10.0 mi West 3.5 mph - N/A   Unknown
7:35 AM 23.0 °F 18.4 °F 19.4 °F 86% 30.29 in 10.0 mi WNW 3.5 mph - N/A   Unknown
7:55 AM 23.0 °F - 19.4 °F 86% 30.29 in 10.0 mi Calm Calm - N/A   Unknown
8:15 AM 21.2 °F - 19.4 °F 93% 30.29 in 7.0 mi Calm Calm - N/A   Unknown
8:35 AM 23.0 °F - 19.4 °F 86% 30.29 in 7.0 mi Calm Calm - N/A   Unknown
8:55 AM 23.0 °F - 21.2 °F 93% 30.29 in 7.0 mi Calm Calm - N/A   Unknown
9:15 AM 26.6 °F 22.6 °F 23.0 °F 86% 30.30 in 10.0 mi NW 3.5 mph - N/A   Unknown
9:35 AM 28.4 °F - 23.0 °F 80% 30.30 in 10.0 mi Calm Calm - N/A   Unknown
9:55 AM 28.4 °F - 23.0 °F 80% 30.30 in 10.0 mi Calm Calm - N/A   Unknown
10:15 AM 30.2 °F 24.3 °F 23.0 °F 75% 30.31 in 10.0 mi North 5.8 mph - N/A   Unknown
10:35 AM 32.0 °F 28.7 °F 23.0 °F 69% 30.31 in 10.0 mi NNE 3.5 mph - N/A   Unknown
10:55 AM 32.0 °F - 21.2 °F 64% 30.31 in 10.0 mi Calm Calm - N/A   Unknown
11:15 AM 32.0 °F - 23.0 °F 69% 30.30 in 10.0 mi Calm Calm - N/A   Unknown
11:35 AM 32.0 °F - 21.2 °F 64% 30.30 in 10.0 mi Calm Calm - N/A   Unknown
11:55 AM 33.8 °F - 21.2 °F 60% 30.29 in 10.0 mi Calm Calm - N/A   Unknown
12:15 PM 33.8 °F - 19.4 °F 56% 30.27 in 10.0 mi Calm Calm - N/A   Unknown
12:35 PM 35.6 °F - 19.4 °F 52% 30.26 in 10.0 mi Calm Calm - N/A   Unknown
12:55 PM 35.6 °F - 19.4 °F 52% 30.25 in 10.0 mi Calm Calm - N/A   Unknown
1:15 PM 37.4 °F 34.9 °F 19.4 °F 48% 30.24 in 10.0 mi SW 3.5 mph - N/A   Unknown
1:35 PM 39.2 °F 35.9 °F 19.4 °F 45% 30.23 in 10.0 mi SSW 4.6 mph - N/A   Unknown
1:55 PM 41.0 °F 37.1 °F 19.4 °F 42% 30.22 in 10.0 mi SSW 5.8 mph - N/A   Unknown
2:15 PM 41.0 °F 35.2 °F 19.4 °F 42% 30.21 in 10.0 mi SSW 9.2 mph - N/A   Unknown
2:35 PM 42.8 °F - 17.6 °F 36% 30.19 in 10.0 mi Calm Calm - N/A   Unknown
2:55 PM 44.6 °F 40.7 °F 19.4 °F 37% 30.18 in 10.0 mi SW 6.9 mph 17.3 mph N/A   Unknown
3:15 PM 44.6 °F 40.2 °F 19.4 °F 37% 30.17 in 10.0 mi WSW 8.1 mph - N/A   Unknown
3:35 PM 44.6 °F 40.7 °F 19.4 °F 37% 30.16 in 10.0 mi West 6.9 mph - N/A   Unknown
3:55 PM 46.4 °F 41.5 °F 19.4 °F 34% 30.15 in 10.0 mi WNW 10.4 mph - N/A   Unknown
4:15 PM 44.6 °F 42.2 °F 19.4 °F 37% 30.14 in 10.0 mi WNW 4.6 mph - N/A   Unknown
4:35 PM 46.4 °F 41.9 °F 21.2 °F 37% 30.13 in 10.0 mi WSW 9.2 mph - N/A   Unknown
4:55 PM 46.4 °F 41.9 °F 21.2 °F 37% 30.11 in 10.0 mi SW 9.2 mph - N/A   Unknown
5:15 PM 46.4 °F 42.9 °F 21.2 °F 37% 30.11 in 10.0 mi South 6.9 mph - N/A   Unknown
5:35 PM 46.4 °F 43.5 °F 23.0 °F 40% 30.11 in 10.0 mi SW 5.8 mph - N/A   Unknown
5:55 PM 46.4 °F 41.5 °F 23.0 °F 40% 30.09 in 10.0 mi SW 10.4 mph - N/A   Unknown
6:15 PM 46.4 °F 41.5 °F 23.0 °F 40% 30.08 in 10.0 mi SW 10.4 mph - N/A   Unknown
6:35 PM 46.4 °F 42.4 °F 23.0 °F 40% 30.09 in 10.0 mi SW 8.1 mph - N/A   Unknown
6:55 PM 46.4 °F 42.4 °F 23.0 °F 40% 30.08 in 10.0 mi WSW 8.1 mph - N/A   Unknown
7:15 PM 44.6 °F 39.7 °F 23.0 °F 43% 30.08 in 10.0 mi SW 9.2 mph - N/A   Unknown
7:35 PM 42.8 °F 38.0 °F 23.0 °F 46% 30.07 in 10.0 mi WSW 8.1 mph - N/A   Unknown
7:55 PM 42.8 °F 38.6 °F 24.8 °F 49% 30.07 in 10.0 mi SW 6.9 mph - N/A   Unknown
8:15 PM 41.0 °F 37.1 °F 23.0 °F 49% 30.06 in 10.0 mi SW 5.8 mph - N/A   Unknown
8:35 PM 41.0 °F 37.1 °F 23.0 °F 49% 30.06 in 10.0 mi SW 5.8 mph - N/A   Unknown
8:55 PM 39.2 °F 35.0 °F 24.8 °F 56% 30.07 in 10.0 mi SSW 5.8 mph - N/A   Unknown
9:15 PM 39.2 °F 35.0 °F 26.6 °F 61% 30.06 in 10.0 mi SSW 5.8 mph - N/A   Unknown
9:35 PM 39.2 °F 35.9 °F 26.6 °F 61% 30.05 in 10.0 mi SSW 4.6 mph - N/A   Unknown
10:15 PM 39.2 °F 35.0 °F 26.6 °F 61% 30.05 in 10.0 mi SSW 5.8 mph - N/A   Unknown
10:35 PM 37.4 °F 32.8 °F 28.4 °F 70% 30.05 in 10.0 mi SW 5.8 mph - N/A   Unknown
10:55 PM 37.4 °F 32.8 °F 28.4 °F 70% 30.04 in 10.0 mi SW 5.8 mph - N/A   Unknown
11:15 PM 37.4 °F 31.4 °F 28.4 °F 70% 30.04 in 10.0 mi SW 8.1 mph - N/A   Unknown
11:35 PM 37.4 °F 32.1 °F 28.4 °F 70% 30.03 in 10.0 mi SW 6.9 mph - N/A   Unknown
11:55 PM 37.4 °F 32.1 °F 30.2 °F 75% 30.02 in 10.0 mi SW 6.9 mph - N/A   Unknown
12:15 AM 37.4 °F 32.1 °F 30.2 °F 75% 30.02 in 10.0 mi SW 6.9 mph - N/A   Unknown
12:35 AM 37.4 °F 32.1 °F 30.2 °F 75% 30.01 in 10.0 mi SW 6.9 mph - N/A   Unknown
12:55 AM 37.4 °F 32.8 °F 30.2 °F 75% 30.00 in 10.0 mi SW 5.8 mph - N/A   Unknown